Time,TemperatureF,DewpointF,PressureIn,WindDirection,WindDirectionDegrees,WindSpeedMPH,WindSpeedGustMPH,Humidity,HourlyPrecipIn,Conditions,Clouds,dailyrainin,SoftwareType,DateUTC
2013-01-13 00:02:00,58.8,57.9,30.11,WNW,289,0.0,0.0,97,0.00,,,0.01,meteohub,2013-01-13 05:02:00,
2013-01-13 00:03:00,58.8,57.9,30.11,WNW,289,0.0,0.0,97,0.00,,,0.01,meteohub,2013-01-13 05:03:00,
2013-01-13 00:04:00,59.0,58.1,30.11,WNW,289,0.0,0.0,97,0.00,,,0.01,meteohub,2013-01-13 05:04:00,
2013-01-13 00:09:00,59.4,58.5,30.11,WNW,289,0.0,0.0,97,0.00,,,0.00,meteohub,2013-01-13 05:09:00,
2013-01-13 00:14:00,59.4,58.3,30.11,WNW,289,0.0,0.0,96,0.00,,,0.00,meteohub,2013-01-13 05:14:00,
2013-01-13 00:19:00,59.4,58.3,30.11,WNW,289,0.0,0.0,96,0.00,,,0.00,meteohub,2013-01-13 05:19:00,
2013-01-13 00:24:00,59.2,58.1,30.11,WNW,289,0.0,0.0,96,0.00,,,0.00,meteohub,2013-01-13 05:24:00,
2013-01-13 00:29:00,58.6,57.2,30.11,WNW,289,0.0,0.0,95,0.00,,,0.00,meteohub,2013-01-13 05:29:00,
2013-01-13 00:34:00,58.3,56.8,30.11,WNW,289,0.0,0.0,95,0.00,,,0.00,meteohub,2013-01-13 05:34:00,
2013-01-13 00:39:00,58.1,57.0,30.11,WNW,289,0.0,0.0,96,0.00,,,0.00,meteohub,2013-01-13 05:39:00,
2013-01-13 00:44:00,57.9,56.8,30.11,WNW,289,0.0,0.0,96,0.00,,,0.00,meteohub,2013-01-13 05:44:00,
2013-01-13 00:49:00,57.7,56.7,30.11,WNW,289,0.0,0.0,96,0.00,,,0.00,meteohub,2013-01-13 05:49:00,
2013-01-13 00:54:00,57.6,56.5,30.11,WNW,289,0.0,0.0,96,0.00,,,0.00,meteohub,2013-01-13 05:54:00,
2013-01-13 00:59:00,57.6,56.5,30.11,WNW,289,0.0,0.0,96,0.00,,,0.00,meteohub,2013-01-13 05:59:00,
2013-01-13 01:04:00,57.4,56.3,30.11,WNW,289,0.0,0.0,96,0.00,,,0.00,meteohub,2013-01-13 06:04:00,
2013-01-13 01:09:00,57.2,56.1,30.10,WNW,289,0.0,0.0,96,0.00,,,0.00,meteohub,2013-01-13 06:09:00,
2013-01-13 01:14:00,57.2,56.1,30.10,WNW,289,0.0,0.0,96,0.00,,,0.00,meteohub,2013-01-13 06:14:00,
2013-01-13 01:19:00,57.0,55.9,30.10,WNW,289,0.0,0.0,96,0.00,,,0.00,meteohub,2013-01-13 06:19:00,
2013-01-13 01:24:00,57.2,56.3,30.11,WNW,289,0.0,0.0,97,0.00,,,0.00,meteohub,2013-01-13 06:24:00,
2013-01-13 01:29:00,57.0,56.1,30.10,WNW,289,0.0,0.0,97,0.00,,,0.00,meteohub,2013-01-13 06:29:00,
2013-01-13 01:34:00,57.0,56.1,30.10,WNW,289,0.0,0.0,97,0.00,,,0.00,meteohub,2013-01-13 06:34:00,
2013-01-13 01:39:00,56.8,55.9,30.10,WNW,289,0.0,0.0,97,0.00,,,0.00,meteohub,2013-01-13 06:39:00,
2013-01-13 01:44:00,56.7,55.8,30.10,WNW,289,0.0,0.0,97,0.00,,,0.00,meteohub,2013-01-13 06:44:00,
2013-01-13 01:49:00,56.7,55.8,30.10,WNW,289,0.0,0.0,97,0.00,,,0.00,meteohub,2013-01-13 06:49:00,
2013-01-13 01:54:00,56.5,55.6,30.10,WNW,289,0.0,0.0,97,0.00,,,0.00,meteohub,2013-01-13 06:54:00,
2013-01-13 01:59:00,56.5,55.6,30.10,WNW,289,0.0,0.0,97,0.00,,,0.00,meteohub,2013-01-13 06:59:00,
2013-01-13 02:04:00,56.5,55.6,30.09,WNW,289,0.0,0.0,97,0.00,,,0.00,meteohub,2013-01-13 07:04:00,
2013-01-13 02:09:00,56.3,55.4,30.10,WNW,289,0.0,0.0,97,0.00,,,0.00,meteohub,2013-01-13 07:09:00,
2013-01-13 02:14:00,56.1,55.2,30.09,WNW,289,0.0,0.0,97,0.00,,,0.00,meteohub,2013-01-13 07:14:00,
2013-01-13 02:19:00,55.9,55.0,30.09,WNW,289,0.0,0.0,97,0.00,,,0.00,meteohub,2013-01-13 07:19:00,
2013-01-13 02:24:00,55.8,54.9,30.09,WNW,289,0.0,0.0,97,0.00,,,0.00,meteohub,2013-01-13 07:24:00,
2013-01-13 02:29:00,55.6,54.7,30.10,WNW,289,0.0,0.0,97,0.00,,,0.00,meteohub,2013-01-13 07:29:00,
2013-01-13 02:34:00,55.2,54.3,30.10,WNW,289,0.0,0.0,97,0.00,,,0.00,meteohub,2013-01-13 07:34:00,
2013-01-13 02:39:00,55.0,54.1,30.10,WNW,289,0.0,0.0,97,0.00,,,0.00,meteohub,2013-01-13 07:39:00,
2013-01-13 02:44:00,54.9,54.0,30.10,WNW,289,0.0,0.0,97,0.00,,,0.00,meteohub,2013-01-13 07:44:00,
2013-01-13 02:49:00,54.7,53.8,30.10,WNW,289,0.0,0.0,97,0.00,,,0.00,meteohub,2013-01-13 07:49:00,
2013-01-13 02:54:00,54.5,53.6,30.10,WNW,289,0.0,0.0,97,0.00,,,0.00,meteohub,2013-01-13 07:54:00,
2013-01-13 02:59:00,54.3,53.4,30.09,WNW,289,0.0,0.0,97,0.00,,,0.00,meteohub,2013-01-13 07:59:00,
2013-01-13 03:04:00,54.1,53.2,30.09,WNW,289,0.0,0.0,97,0.00,,,0.00,meteohub,2013-01-13 08:04:00,
2013-01-13 03:09:00,54.0,53.1,30.09,WNW,289,0.0,0.0,97,0.00,,,0.00,meteohub,2013-01-13 08:09:00,
2013-01-13 03:14:00,53.8,52.9,30.09,WNW,289,0.0,0.0,97,0.00,,,0.00,meteohub,2013-01-13 08:14:00,
2013-01-13 03:19:00,53.8,52.9,30.09,WNW,289,0.0,0.0,97,0.00,,,0.00,meteohub,2013-01-13 08:19:00,
2013-01-13 03:24:00,53.4,52.5,30.09,WNW,289,0.0,0.0,97,0.00,,,0.00,meteohub,2013-01-13 08:24:00,
2013-01-13 03:29:00,53.4,52.5,30.09,WNW,289,0.0,0.0,97,0.00,,,0.00,meteohub,2013-01-13 08:29:00,
2013-01-13 03:34:00,53.2,52.3,30.09,WNW,289,0.0,0.0,97,0.00,,,0.00,meteohub,2013-01-13 08:34:00,
2013-01-13 03:39:00,53.2,52.3,30.09,WNW,289,0.0,0.0,97,0.00,,,0.00,meteohub,2013-01-13 08:39:00,
2013-01-13 03:44:00,53.2,52.3,30.09,WNW,289,0.0,0.0,97,0.00,,,0.00,meteohub,2013-01-13 08:44:00,
2013-01-13 03:49:00,53.2,52.3,30.09,WNW,289,0.0,0.0,97,0.00,,,0.00,meteohub,2013-01-13 08:49:00,
2013-01-13 03:54:00,53.2,52.3,30.09,WNW,289,0.0,0.0,97,0.00,,,0.00,meteohub,2013-01-13 08:54:00,
2013-01-13 03:59:00,53.2,52.3,30.09,WNW,289,0.0,0.0,97,0.00,,,0.00,meteohub,2013-01-13 08:59:00,
2013-01-13 04:04:00,53.1,52.2,30.10,WNW,289,0.0,0.0,97,0.00,,,0.00,meteohub,2013-01-13 09:04:00,
2013-01-13 04:09:00,53.1,52.2,30.10,WNW,289,0.0,0.0,97,0.00,,,0.00,meteohub,2013-01-13 09:09:00,
2013-01-13 04:14:00,53.4,52.5,30.10,WNW,289,0.0,0.0,97,0.00,,,0.00,meteohub,2013-01-13 09:14:00,
2013-01-13 04:19:00,55.8,55.2,30.10,West,270,3.0,3.0,98,0.00,,,0.00,meteohub,2013-01-13 09:19:00,
2013-01-13 04:24:00,58.5,57.9,30.10,West,262,2.0,4.0,98,0.00,,,0.00,meteohub,2013-01-13 09:24:00,
2013-01-13 04:29:00,59.2,58.6,30.09,WSW,251,1.0,5.0,98,0.00,,,0.00,meteohub,2013-01-13 09:29:00,
2013-01-13 04:34:00,59.5,59.0,30.09,WSW,240,0.0,5.0,98,0.00,,,0.00,meteohub,2013-01-13 09:34:00,
2013-01-13 04:39:00,59.5,59.0,30.09,WSW,255,0.0,5.0,98,0.00,,,0.00,meteohub,2013-01-13 09:39:00,
2013-01-13 04:44:00,59.5,59.0,30.09,WSW,255,0.0,5.0,98,0.00,,,0.00,meteohub,2013-01-13 09:44:00,
2013-01-13 04:49:00,59.4,58.5,30.09,WSW,255,0.0,4.0,97,0.00,,,0.00,meteohub,2013-01-13 09:49:00,
2013-01-13 04:54:00,59.0,57.9,30.09,WSW,255,0.0,0.0,96,0.00,,,0.00,meteohub,2013-01-13 09:54:00,
2013-01-13 04:59:00,58.6,57.6,30.09,WSW,255,0.0,0.0,96,0.00,,,0.00,meteohub,2013-01-13 09:59:00,
2013-01-13 05:04:00,58.3,57.2,30.09,WSW,255,0.0,0.0,96,0.00,,,0.00,meteohub,2013-01-13 10:04:00,
2013-01-13 05:09:00,58.1,57.0,30.10,WSW,255,0.0,0.0,96,0.00,,,0.00,meteohub,2013-01-13 10:09:00,
2013-01-13 05:14:00,57.7,56.7,30.10,WSW,255,0.0,0.0,96,0.00,,,0.00,meteohub,2013-01-13 10:14:00,
2013-01-13 05:19:00,57.4,56.3,30.10,WSW,255,0.0,0.0,96,0.00,,,0.00,meteohub,2013-01-13 10:19:00,
2013-01-13 05:24:00,56.8,55.8,30.10,WSW,255,0.0,0.0,96,0.00,,,0.00,meteohub,2013-01-13 10:24:00,
2013-01-13 05:29:00,56.8,55.8,30.10,WSW,255,0.0,0.0,96,0.00,,,0.00,meteohub,2013-01-13 10:29:00,
2013-01-13 05:34:00,56.8,55.9,30.10,WSW,255,0.0,0.0,97,0.00,,,0.00,meteohub,2013-01-13 10:34:00,
2013-01-13 05:39:00,56.8,55.9,30.10,WSW,255,0.0,0.0,97,0.00,,,0.00,meteohub,2013-01-13 10:39:00,
2013-01-13 05:44:00,56.5,55.4,30.10,WSW,255,0.0,0.0,96,0.00,,,0.00,meteohub,2013-01-13 10:44:00,
2013-01-13 05:49:00,55.9,54.9,30.10,WSW,255,0.0,0.0,96,0.00,,,0.00,meteohub,2013-01-13 10:49:00,
2013-01-13 05:54:00,55.8,54.7,30.10,WSW,255,0.0,0.0,96,0.00,,,0.00,meteohub,2013-01-13 10:54:00,
2013-01-13 05:59:00,55.4,54.3,30.10,WSW,255,0.0,0.0,96,0.00,,,0.00,meteohub,2013-01-13 10:59:00,
2013-01-13 06:04:00,55.0,54.1,30.10,WSW,255,0.0,0.0,97,0.00,,,0.00,meteohub,2013-01-13 11:04:00,
2013-01-13 06:09:00,55.2,54.3,30.10,WSW,255,0.0,0.0,97,0.00,,,0.00,meteohub,2013-01-13 11:09:00,
2013-01-13 06:14:00,55.4,54.5,30.10,WSW,255,0.0,0.0,97,0.00,,,0.00,meteohub,2013-01-13 11:14:00,
2013-01-13 06:19:00,55.2,54.3,30.11,WSW,255,0.0,0.0,97,0.00,,,0.00,meteohub,2013-01-13 11:19:00,
2013-01-13 06:24:00,55.2,54.3,30.10,WSW,255,0.0,0.0,97,0.00,,,0.00,meteohub,2013-01-13 11:24:00,
2013-01-13 06:29:00,55.0,54.1,30.11,WSW,255,0.0,0.0,97,0.00,,,0.00,meteohub,2013-01-13 11:29:00,
2013-01-13 06:34:00,54.9,54.0,30.11,WSW,255,0.0,0.0,97,0.00,,,0.00,meteohub,2013-01-13 11:34:00,
2013-01-13 06:39:00,54.7,53.8,30.11,WSW,255,0.0,0.0,97,0.00,,,0.00,meteohub,2013-01-13 11:39:00,
2013-01-13 06:44:00,54.3,53.4,30.12,WSW,255,0.0,0.0,97,0.00,,,0.00,meteohub,2013-01-13 11:44:00,
2013-01-13 06:49:00,54.1,53.2,30.12,WSW,255,0.0,0.0,97,0.00,,,0.00,meteohub,2013-01-13 11:49:00,
2013-01-13 06:54:00,54.0,53.1,30.12,WSW,255,0.0,0.0,97,0.00,,,0.00,meteohub,2013-01-13 11:54:00,
2013-01-13 06:59:00,53.6,52.7,30.12,WSW,255,0.0,0.0,97,0.00,,,0.00,meteohub,2013-01-13 11:59:00,
2013-01-13 07:04:00,53.2,52.3,30.12,WSW,255,0.0,0.0,97,0.00,,,0.00,meteohub,2013-01-13 12:04:00,
2013-01-13 07:09:00,53.1,52.2,30.12,WSW,255,0.0,0.0,97,0.00,,,0.00,meteohub,2013-01-13 12:09:00,
2013-01-13 07:14:00,52.9,52.0,30.13,WSW,255,0.0,0.0,97,0.00,,,0.00,meteohub,2013-01-13 12:14:00,
2013-01-13 07:19:00,52.9,52.0,30.13,WSW,255,0.0,0.0,97,0.00,,,0.00,meteohub,2013-01-13 12:19:00,
2013-01-13 07:24:00,52.9,52.0,30.13,WSW,255,0.0,0.0,97,0.00,,,0.00,meteohub,2013-01-13 12:24:00,
2013-01-13 07:29:00,52.9,52.0,30.13,WSW,255,0.0,0.0,97,0.00,,,0.00,meteohub,2013-01-13 12:29:00,
2013-01-13 07:34:00,52.9,52.0,30.13,WSW,255,0.0,0.0,97,0.00,,,0.00,meteohub,2013-01-13 12:34:00,
2013-01-13 07:39:00,53.1,52.2,30.13,WSW,255,0.0,0.0,97,0.00,,,0.00,meteohub,2013-01-13 12:39:00,
2013-01-13 07:45:00,53.2,52.3,30.14,WSW,255,0.0,0.0,97,0.00,,,0.00,meteohub,2013-01-13 12:45:00,
2013-01-13 07:49:00,53.4,52.9,30.14,WSW,255,0.0,0.0,98,0.00,,,0.00,meteohub,2013-01-13 12:49:00,
2013-01-13 07:55:00,53.4,52.9,30.14,WSW,255,0.0,0.0,98,0.00,,,0.00,meteohub,2013-01-13 12:55:00,
2013-01-13 08:00:00,53.8,53.2,30.14,WSW,255,0.0,0.0,98,0.00,,,0.00,meteohub,2013-01-13 13:00:00,
2013-01-13 08:05:00,54.1,53.6,30.14,WSW,255,0.0,0.0,98,0.00,,,0.00,meteohub,2013-01-13 13:05:00,
2013-01-13 08:10:00,54.3,53.8,30.15,WSW,255,0.0,0.0,98,0.00,,,0.00,meteohub,2013-01-13 13:10:00,
2013-01-13 08:15:00,54.7,54.1,30.15,WSW,255,0.0,0.0,98,0.00,,,0.00,meteohub,2013-01-13 13:15:00,
2013-01-13 08:20:00,55.2,54.7,30.14,WSW,255,0.0,0.0,98,0.00,,,0.00,meteohub,2013-01-13 13:20:00,
2013-01-13 08:25:00,55.8,55.2,30.14,WSW,255,0.0,0.0,98,0.00,,,0.00,meteohub,2013-01-13 13:25:00,
2013-01-13 08:30:00,56.7,56.1,30.14,WSW,255,0.0,0.0,98,0.00,,,0.00,meteohub,2013-01-13 13:30:00,
2013-01-13 08:35:00,57.4,56.8,30.14,WSW,255,0.0,0.0,98,0.00,,,0.00,meteohub,2013-01-13 13:35:00,
2013-01-13 08:40:00,58.1,57.7,30.15,WSW,255,0.0,0.0,99,0.00,,,0.00,meteohub,2013-01-13 13:40:00,
2013-01-13 08:45:00,58.8,58.5,30.15,WSW,255,0.0,0.0,99,0.00,,,0.00,meteohub,2013-01-13 13:45:00,
2013-01-13 08:50:00,59.5,59.2,30.15,WSW,255,0.0,0.0,99,0.00,,,0.00,meteohub,2013-01-13 13:50:00,
2013-01-13 08:55:00,60.4,60.1,30.15,WSW,255,0.0,0.0,99,0.00,,,0.00,meteohub,2013-01-13 13:55:00,
2013-01-13 09:00:00,61.0,60.6,30.15,WSW,255,0.0,0.0,99,0.00,,,0.00,meteohub,2013-01-13 14:00:00,
2013-01-13 09:05:00,61.2,60.8,30.15,WSW,255,0.0,0.0,99,0.00,,,0.00,meteohub,2013-01-13 14:05:00,
2013-01-13 09:10:00,61.7,61.3,30.15,WSW,255,0.0,0.0,99,0.00,,,0.00,meteohub,2013-01-13 14:10:00,
2013-01-13 09:15:00,62.2,61.9,30.15,WSW,255,0.0,0.0,99,0.00,,,0.00,meteohub,2013-01-13 14:15:00,
2013-01-13 09:20:00,63.3,62.8,30.16,West,261,0.0,3.0,98,0.00,,,0.00,meteohub,2013-01-13 14:20:00,
2013-01-13 09:25:00,64.6,63.5,30.16,WSW,254,0.0,6.0,96,0.00,,,0.00,meteohub,2013-01-13 14:25:00,
2013-01-13 09:30:00,65.7,63.5,30.16,West,261,4.0,6.0,93,0.00,,,0.00,meteohub,2013-01-13 14:30:00,
2013-01-13 09:35:00,66.6,63.9,30.16,WSW,258,6.0,8.0,91,0.00,,,0.00,meteohub,2013-01-13 14:35:00,
2013-01-13 09:40:00,67.3,63.9,30.16,West,275,4.0,8.0,89,0.00,,,0.00,meteohub,2013-01-13 14:40:00,
2013-01-13 09:45:00,67.8,63.9,30.16,WSW,240,0.0,8.0,87,0.00,,,0.00,meteohub,2013-01-13 14:45:00,
2013-01-13 09:50:00,68.2,63.9,30.16,WSW,255,4.0,8.0,86,0.00,,,0.00,meteohub,2013-01-13 14:50:00,
2013-01-13 09:55:00,68.5,63.9,30.16,West,265,2.0,7.0,85,0.00,,,0.00,meteohub,2013-01-13 14:55:00,
2013-01-13 10:00:00,68.9,63.9,30.16,SW,232,4.0,7.0,84,0.00,,,0.00,meteohub,2013-01-13 15:00:00,
2013-01-13 10:05:00,69.3,63.9,30.16,West,278,3.0,8.0,83,0.00,,,0.00,meteohub,2013-01-13 15:05:00,
2013-01-13 10:10:00,69.4,64.0,30.16,WSW,252,4.0,8.0,83,0.00,,,0.00,meteohub,2013-01-13 15:10:00,
2013-01-13 10:15:00,69.4,64.0,30.16,WSW,240,4.0,8.0,83,0.00,,,0.00,meteohub,2013-01-13 15:15:00,
2013-01-13 10:20:00,69.8,64.0,30.16,WSW,253,8.0,8.0,82,0.00,,,0.00,meteohub,2013-01-13 15:20:00,
2013-01-13 10:25:00,69.6,63.9,30.16,WSW,244,8.0,9.0,82,0.00,,,0.00,meteohub,2013-01-13 15:25:00,
2013-01-13 10:30:00,69.4,63.7,30.16,WSW,247,5.0,10.0,82,0.00,,,0.00,meteohub,2013-01-13 15:30:00,
2013-01-13 10:35:00,69.4,63.7,30.15,West,265,5.0,10.0,82,0.00,,,0.00,meteohub,2013-01-13 15:35:00,
2013-01-13 10:40:00,69.4,63.7,30.15,WSW,255,5.0,10.0,82,0.00,,,0.00,meteohub,2013-01-13 15:40:00,
2013-01-13 10:45:00,69.6,63.9,30.15,West,272,2.0,10.0,82,0.00,,,0.00,meteohub,2013-01-13 15:45:00,
2013-01-13 10:50:00,69.8,64.0,30.15,West,270,2.0,9.0,82,0.00,,,0.00,meteohub,2013-01-13 15:50:00,
2013-01-13 10:55:00,70.3,64.2,30.15,SW,234,5.0,7.0,81,0.00,,,0.00,meteohub,2013-01-13 15:55:00,
2013-01-13 11:00:00,70.3,64.2,30.15,West,269,0.0,6.0,81,0.00,,,0.00,meteohub,2013-01-13 16:00:00,
2013-01-13 11:05:00,70.7,64.6,30.15,SW,228,2.0,8.0,81,0.00,,,0.00,meteohub,2013-01-13 16:05:00,
2013-01-13 11:10:00,70.9,64.4,30.14,SW,229,2.0,8.0,80,0.00,,,0.00,meteohub,2013-01-13 16:10:00,
2013-01-13 11:15:00,71.1,64.6,30.14,WSW,252,1.0,8.0,80,0.00,,,0.00,meteohub,2013-01-13 16:15:00,
2013-01-13 11:20:00,71.1,64.2,30.14,West,267,2.0,7.0,79,0.00,,,0.00,meteohub,2013-01-13 16:20:00,
2013-01-13 11:25:00,71.2,64.4,30.14,West,279,3.0,10.0,79,0.00,,,0.00,meteohub,2013-01-13 16:25:00,
2013-01-13 11:30:00,71.2,64.4,30.13,West,269,6.0,10.0,79,0.00,,,0.00,meteohub,2013-01-13 16:30:00,
2013-01-13 11:35:00,71.8,64.6,30.13,West,263,4.0,11.0,78,0.00,,,0.00,meteohub,2013-01-13 16:35:00,
2013-01-13 11:40:00,72.1,64.9,30.13,West,273,7.0,11.0,78,0.00,,,0.00,meteohub,2013-01-13 16:40:00,
2013-01-13 11:45:00,72.7,64.8,30.12,WSW,254,2.0,11.0,76,0.00,,,0.00,meteohub,2013-01-13 16:45:00,
2013-01-13 11:50:00,73.0,64.9,30.12,West,272,3.0,11.0,76,0.00,,,0.00,meteohub,2013-01-13 16:50:00,
2013-01-13 11:55:00,73.2,64.8,30.12,WSW,254,1.0,9.0,75,0.00,,,0.00,meteohub,2013-01-13 16:55:00,
2013-01-13 12:01:00,73.6,65.1,30.12,West,279,6.0,9.0,75,0.00,,,0.00,meteohub,2013-01-13 17:01:00,
2013-01-13 12:06:00,73.6,64.8,30.12,West,259,6.0,9.0,74,0.00,,,0.00,meteohub,2013-01-13 17:06:00,
2013-01-13 12:11:00,73.6,64.8,30.11,West,268,4.0,10.0,74,0.00,,,0.00,meteohub,2013-01-13 17:11:00,
2013-01-13 12:16:00,73.0,64.6,30.12,West,272,7.0,10.0,75,0.00,,,0.00,meteohub,2013-01-13 17:16:00,
2013-01-13 12:21:00,72.7,64.2,30.12,West,262,8.0,10.0,75,0.00,,,0.00,meteohub,2013-01-13 17:21:00,
2013-01-13 12:26:00,72.7,64.8,30.11,WSW,255,7.0,10.0,76,0.00,,,0.00,meteohub,2013-01-13 17:26:00,
2013-01-13 12:31:00,72.7,64.2,30.11,WSW,240,7.0,10.0,75,0.00,,,0.00,meteohub,2013-01-13 17:31:00,
2013-01-13 12:36:00,72.7,64.2,30.11,WSW,246,5.0,10.0,75,0.00,,,0.00,meteohub,2013-01-13 17:36:00,
2013-01-13 12:41:00,73.0,64.2,30.11,West,276,6.0,9.0,74,0.00,,,0.00,meteohub,2013-01-13 17:41:00,
2013-01-13 12:46:00,73.4,64.6,30.10,West,279,6.0,9.0,74,0.00,,,0.00,meteohub,2013-01-13 17:46:00,
2013-01-13 12:51:00,73.9,64.4,30.10,WSW,246,5.0,9.0,72,0.00,,,0.00,meteohub,2013-01-13 17:51:00,
2013-01-13 12:56:00,73.6,64.4,30.09,West,267,1.0,9.0,73,0.00,,,0.00,meteohub,2013-01-13 17:56:00,
2013-01-13 13:01:00,73.6,64.4,30.09,West,273,6.0,9.0,73,0.00,,,0.00,meteohub,2013-01-13 18:01:00,
2013-01-13 13:06:00,73.8,64.6,30.09,West,273,4.0,9.0,73,0.00,,,0.00,meteohub,2013-01-13 18:06:00,
2013-01-13 13:11:00,74.1,64.6,30.09,West,271,3.0,9.0,72,0.00,,,0.00,meteohub,2013-01-13 18:11:00,
2013-01-13 13:16:00,74.5,64.9,30.09,WSW,256,3.0,9.0,72,0.00,,,0.00,meteohub,2013-01-13 18:16:00,
2013-01-13 13:21:00,75.0,64.9,30.08,West,269,6.0,11.0,71,0.00,,,0.00,meteohub,2013-01-13 18:21:00,
2013-01-13 13:26:00,75.2,64.8,30.08,North,0,1.0,11.0,70,0.00,,,0.00,meteohub,2013-01-13 18:26:00,
2013-01-13 13:31:00,75.2,65.1,30.08,North,0,1.0,7.0,71,0.00,,,0.00,meteohub,2013-01-13 18:31:00,
2013-01-13 13:36:00,75.4,64.6,30.08,ESE,109,0.0,7.0,69,0.00,,,0.00,meteohub,2013-01-13 18:36:00,
2013-01-13 13:41:00,73.9,63.9,30.08,East,91,1.0,7.0,71,0.00,,,0.00,meteohub,2013-01-13 18:41:00,
2013-01-13 13:46:00,72.5,63.7,30.08,East,101,0.0,7.0,74,0.00,,,0.00,meteohub,2013-01-13 18:46:00,
2013-01-13 13:51:00,72.0,64.0,30.08,ESE,115,2.0,8.0,76,0.00,,,0.00,meteohub,2013-01-13 18:51:00,
2013-01-13 13:56:00,71.4,63.9,30.08,East,92,1.0,8.0,77,0.00,,,0.00,meteohub,2013-01-13 18:56:00,
2013-01-13 14:01:00,71.2,64.0,30.08,East,86,0.0,7.0,78,0.00,,,0.00,meteohub,2013-01-13 19:01:00,
2013-01-13 14:06:00,71.4,63.9,30.08,East,101,0.0,7.0,77,0.00,,,0.00,meteohub,2013-01-13 19:06:00,
2013-01-13 14:11:00,71.8,64.2,30.08,ESE,123,0.0,6.0,77,0.00,,,0.00,meteohub,2013-01-13 19:11:00,
2013-01-13 14:16:00,72.1,64.6,30.08,East,83,0.0,6.0,77,0.00,,,0.00,meteohub,2013-01-13 19:16:00,
2013-01-13 14:21:00,72.3,64.8,30.08,East,83,0.0,6.0,77,0.00,,,0.00,meteohub,2013-01-13 19:21:00,
2013-01-13 14:26:00,72.5,64.9,30.08,East,83,0.0,6.0,77,0.00,,,0.00,meteohub,2013-01-13 19:26:00,
2013-01-13 14:31:00,72.7,65.1,30.08,East,83,0.0,0.0,77,0.00,,,0.00,meteohub,2013-01-13 19:31:00,
2013-01-13 14:36:00,72.7,65.1,30.08,East,83,0.0,0.0,77,0.00,,,0.00,meteohub,2013-01-13 19:36:00,
2013-01-13 14:41:00,72.9,65.3,30.08,East,83,0.0,2.0,77,0.00,,,0.00,meteohub,2013-01-13 19:41:00,
2013-01-13 14:46:00,73.6,63.7,30.08,SW,229,5.0,5.0,71,0.00,,,0.00,meteohub,2013-01-13 19:46:00,
2013-01-13 14:51:00,74.7,63.0,30.08,SW,219,4.0,8.0,67,0.00,,,0.00,meteohub,2013-01-13 19:51:00,
2013-01-13 14:56:00,74.8,63.1,30.08,North,0,10.0,10.0,67,0.00,,,0.00,meteohub,2013-01-13 19:56:00,
2013-01-13 15:01:00,74.7,63.0,30.08,West,277,7.0,12.0,67,0.00,,,0.00,meteohub,2013-01-13 20:01:00,
2013-01-13 15:06:00,74.5,62.8,30.08,West,261,5.0,12.0,67,0.00,,,0.00,meteohub,2013-01-13 20:06:00,
2013-01-13 15:11:00,74.1,62.4,30.09,West,259,8.0,14.0,67,0.00,,,0.00,meteohub,2013-01-13 20:11:00,
2013-01-13 15:16:00,73.9,62.8,30.09,WSW,248,5.0,14.0,68,0.00,,,0.00,meteohub,2013-01-13 20:16:00,
2013-01-13 15:21:00,73.9,62.8,30.09,SSW,213,5.0,11.0,68,0.00,,,0.00,meteohub,2013-01-13 20:21:00,
2013-01-13 15:26:00,73.8,63.0,30.09,WSW,244,2.0,11.0,69,0.00,,,0.00,meteohub,2013-01-13 20:26:00,
2013-01-13 15:31:00,73.6,62.8,30.09,SW,233,3.0,11.0,69,0.00,,,0.00,meteohub,2013-01-13 20:31:00,
2013-01-13 15:36:00,73.6,62.8,30.09,WSW,253,0.0,11.0,69,0.00,,,0.00,meteohub,2013-01-13 20:36:00,
2013-01-13 15:41:00,73.8,63.0,30.09,West,279,3.0,7.0,69,0.00,,,0.00,meteohub,2013-01-13 20:41:00,
2013-01-13 15:46:00,73.8,63.0,30.09,North,0,4.0,7.0,69,0.00,,,0.00,meteohub,2013-01-13 20:46:00,
2013-01-13 15:51:00,73.6,62.8,30.09,SSW,194,4.0,8.0,69,0.00,,,0.00,meteohub,2013-01-13 20:51:00,
2013-01-13 15:56:00,73.0,62.2,30.10,SW,224,0.0,8.0,69,0.00,,,0.00,meteohub,2013-01-13 20:56:00,
2013-01-13 16:01:00,72.9,62.4,30.10,North,0,3.0,11.0,70,0.00,,,0.00,meteohub,2013-01-13 21:01:00,
2013-01-13 16:06:00,72.9,63.0,30.10,SSW,193,1.0,11.0,71,0.00,,,0.00,meteohub,2013-01-13 21:06:00,
2013-01-13 16:11:00,72.7,62.8,30.10,SSW,195,0.0,11.0,71,0.00,,,0.00,meteohub,2013-01-13 21:11:00,
2013-01-13 16:16:00,72.3,62.8,30.10,West,279,5.0,9.0,72,0.00,,,0.00,meteohub,2013-01-13 21:16:00,
2013-01-13 16:21:00,72.0,62.4,30.10,SSW,205,3.0,7.0,72,0.00,,,0.00,meteohub,2013-01-13 21:21:00,
2013-01-13 16:26:00,71.8,62.6,30.10,SW,215,0.0,7.0,73,0.00,,,0.00,meteohub,2013-01-13 21:26:00,
2013-01-13 16:31:00,71.4,62.8,30.10,SSW,213,0.0,7.0,74,0.00,,,0.00,meteohub,2013-01-13 21:31:00,
2013-01-13 16:36:00,71.2,62.6,30.11,WSW,254,2.0,7.0,74,0.00,,,0.00,meteohub,2013-01-13 21:36:00,
2013-01-13 16:41:00,71.1,62.8,30.11,SSW,209,0.0,7.0,75,0.00,,,0.00,meteohub,2013-01-13 21:41:00,
2013-01-13 16:46:00,71.2,63.0,30.11,SSW,209,2.0,7.0,75,0.00,,,0.00,meteohub,2013-01-13 21:46:00,
2013-01-13 16:51:00,71.2,63.0,30.12,SW,223,0.0,7.0,75,0.00,,,0.00,meteohub,2013-01-13 21:51:00,
2013-01-13 16:56:00,70.5,62.6,30.12,East,101,0.0,7.0,76,0.00,,,0.00,meteohub,2013-01-13 21:56:00,
2013-01-13 17:01:00,69.6,62.4,30.12,SSW,205,1.0,7.0,78,0.00,,,0.00,meteohub,2013-01-13 22:01:00,
2013-01-13 17:06:00,68.9,62.4,30.12,East,92,0.0,4.0,80,0.00,,,0.00,meteohub,2013-01-13 22:06:00,
2013-01-13 17:11:00,68.4,62.2,30.12,ENE,74,0.0,4.0,81,0.00,,,0.00,meteohub,2013-01-13 22:11:00,
2013-01-13 17:16:00,67.6,61.9,30.11,South,175,0.0,5.0,82,0.00,,,0.00,meteohub,2013-01-13 22:16:00,
2013-01-13 17:21:00,67.3,61.9,30.12,SSE,165,0.0,5.0,83,0.00,,,0.00,meteohub,2013-01-13 22:21:00,
2013-01-13 17:26:00,66.9,62.2,30.12,SSW,203,0.0,7.0,85,0.00,,,0.00,meteohub,2013-01-13 22:26:00,
2013-01-13 17:31:00,66.6,61.9,30.12,SSW,201,0.0,7.0,85,0.00,,,0.00,meteohub,2013-01-13 22:31:00,
2013-01-13 17:36:00,66.4,62.1,30.12,South,188,0.0,4.0,86,0.00,,,0.00,meteohub,2013-01-13 22:36:00,
2013-01-13 17:41:00,66.0,62.1,30.12,SSW,192,0.0,4.0,87,0.00,,,0.00,meteohub,2013-01-13 22:41:00,
2013-01-13 17:46:00,65.7,61.7,30.12,SSW,193,0.0,4.0,87,0.00,,,0.00,meteohub,2013-01-13 22:46:00,
2013-01-13 17:51:00,65.5,61.9,30.12,SSE,166,0.0,3.0,88,0.00,,,0.00,meteohub,2013-01-13 22:51:00,
2013-01-13 17:56:00,65.1,61.5,30.12,SSW,202,0.0,3.0,88,0.00,,,0.00,meteohub,2013-01-13 22:56:00,
2013-01-13 18:01:00,64.9,61.3,30.12,South,170,1.0,0.0,88,0.00,,,0.00,meteohub,2013-01-13 23:01:00,
2013-01-13 18:06:00,64.9,61.7,30.12,SW,219,0.0,2.0,89,0.00,,,0.00,meteohub,2013-01-13 23:06:00,
2013-01-13 18:11:00,64.8,61.5,30.12,SSW,200,0.0,2.0,89,0.00,,,0.00,meteohub,2013-01-13 23:11:00,
2013-01-13 18:16:00,64.6,61.3,30.12,South,174,0.0,3.0,89,0.00,,,0.00,meteohub,2013-01-13 23:16:00,
2013-01-13 18:21:00,64.2,61.2,30.11,SSW,205,0.0,3.0,90,0.00,,,0.00,meteohub,2013-01-13 23:21:00,
2013-01-13 18:26:00,64.0,61.0,30.12,SW,214,0.0,3.0,90,0.00,,,0.00,meteohub,2013-01-13 23:26:00,
2013-01-13 18:31:00,63.9,60.8,30.12,SW,214,0.0,3.0,90,0.00,,,0.00,meteohub,2013-01-13 23:31:00,
2013-01-13 18:36:00,63.7,61.0,30.12,South,186,0.0,4.0,91,0.00,,,0.00,meteohub,2013-01-13 23:36:00,
2013-01-13 18:41:00,63.5,60.8,30.12,SSW,197,0.0,4.0,91,0.00,,,0.00,meteohub,2013-01-13 23:41:00,
2013-01-13 18:46:00,63.3,60.6,30.11,SSW,205,0.0,4.0,91,0.00,,,0.00,meteohub,2013-01-13 23:46:00,
2013-01-13 18:51:00,63.3,60.6,30.11,South,190,0.0,4.0,91,0.00,,,0.00,meteohub,2013-01-13 23:51:00,
2013-01-13 18:56:00,63.3,60.6,30.11,South,190,0.0,1.0,91,0.00,,,0.00,meteohub,2013-01-13 23:56:00,
2013-01-13 19:01:00,63.1,60.8,30.11,South,172,0.0,0.0,92,0.00,,,0.00,meteohub,2013-01-14 00:01:00,
2013-01-13 19:06:00,63.0,60.6,30.11,South,186,0.0,0.0,92,0.00,,,0.00,meteohub,2013-01-14 00:06:00,
2013-01-13 19:11:00,63.0,60.6,30.11,SSW,192,0.0,0.0,92,0.00,,,0.00,meteohub,2013-01-14 00:11:00,
2013-01-13 19:16:00,63.0,60.6,30.11,SSW,192,0.0,2.0,92,0.00,,,0.00,meteohub,2013-01-14 00:16:00,
2013-01-13 19:21:00,62.8,60.4,30.11,SSW,192,0.0,2.0,92,0.00,,,0.00,meteohub,2013-01-14 00:21:00,
2013-01-13 19:26:00,62.6,60.3,30.11,SSW,192,0.0,2.0,92,0.00,,,0.00,meteohub,2013-01-14 00:26:00,
2013-01-13 19:31:00,62.4,60.4,30.10,SSW,192,0.0,0.0,93,0.00,,,0.00,meteohub,2013-01-14 00:31:00,
2013-01-13 19:36:00,62.2,60.3,30.10,SSW,192,0.0,0.0,93,0.00,,,0.00,meteohub,2013-01-14 00:36:00,
2013-01-13 19:41:00,62.1,60.1,30.10,SSW,192,0.0,0.0,93,0.00,,,0.00,meteohub,2013-01-14 00:41:00,
2013-01-13 19:46:00,62.1,60.1,30.10,SSW,200,0.0,0.0,93,0.00,,,0.00,meteohub,2013-01-14 00:46:00,
2013-01-13 19:51:00,61.9,60.1,30.10,SSW,204,0.0,3.0,94,0.00,,,0.00,meteohub,2013-01-14 00:51:00,
2013-01-13 19:56:00,61.9,59.9,30.10,SSW,204,0.0,3.0,93,0.00,,,0.00,meteohub,2013-01-14 00:56:00,
2013-01-13 20:01:00,61.5,59.7,30.10,SSW,204,0.0,3.0,94,0.00,,,0.00,meteohub,2013-01-14 01:01:00,
2013-01-13 20:06:00,61.5,59.7,30.10,SSW,204,0.0,0.0,94,0.00,,,0.00,meteohub,2013-01-14 01:06:00,
2013-01-13 20:11:00,61.3,59.5,30.10,SSW,204,0.0,0.0,94,0.00,,,0.00,meteohub,2013-01-14 01:11:00,
2013-01-13 20:16:00,61.2,59.4,30.10,SSW,204,0.0,0.0,94,0.00,,,0.00,meteohub,2013-01-14 01:16:00,
2013-01-13 20:21:00,61.0,59.2,30.09,SSW,204,0.0,0.0,94,0.00,,,0.00,meteohub,2013-01-14 01:21:00,
2013-01-13 20:26:00,61.0,59.2,30.10,SSW,204,0.0,0.0,94,0.00,,,0.00,meteohub,2013-01-14 01:26:00,
2013-01-13 20:31:00,60.8,59.4,30.10,SSW,204,0.0,0.0,95,0.00,,,0.00,meteohub,2013-01-14 01:31:00,
2013-01-13 20:36:00,60.6,59.2,30.10,SSW,204,0.0,0.0,95,0.00,,,0.00,meteohub,2013-01-14 01:36:00,
2013-01-13 20:41:00,60.4,59.0,30.10,SSW,204,0.0,0.0,95,0.00,,,0.00,meteohub,2013-01-14 01:41:00,
2013-01-13 20:46:00,60.4,59.0,30.10,SSW,204,0.0,0.0,95,0.00,,,0.00,meteohub,2013-01-14 01:46:00,
2013-01-13 20:51:00,60.3,58.8,30.10,SSW,204,0.0,0.0,95,0.00,,,0.00,meteohub,2013-01-14 01:51:00,
2013-01-13 20:56:00,60.1,58.6,30.10,SSW,204,0.0,0.0,95,0.00,,,0.00,meteohub,2013-01-14 01:56:00,
2013-01-13 21:01:00,60.1,58.6,30.09,SSW,204,0.0,0.0,95,0.00,,,0.00,meteohub,2013-01-14 02:01:00,
2013-01-13 21:06:00,60.1,58.6,30.10,SSW,204,0.0,0.0,95,0.00,,,0.00,meteohub,2013-01-14 02:06:00,
2013-01-13 21:11:00,60.1,59.0,30.10,SSW,204,0.0,0.0,96,0.00,,,0.00,meteohub,2013-01-14 02:11:00,
2013-01-13 21:16:00,60.1,59.0,30.10,SSW,204,0.0,0.0,96,0.00,,,0.00,meteohub,2013-01-14 02:16:00,
2013-01-13 21:21:00,59.7,58.6,30.09,SSW,204,0.0,0.0,96,0.00,,,0.00,meteohub,2013-01-14 02:21:00,
2013-01-13 21:26:00,59.7,58.6,30.10,SSW,204,0.0,0.0,96,0.00,,,0.00,meteohub,2013-01-14 02:26:00,
2013-01-13 21:31:00,59.7,58.6,30.11,SSW,204,0.0,0.0,96,0.00,,,0.00,meteohub,2013-01-14 02:31:00,
2013-01-13 21:36:00,59.5,58.5,30.11,SSW,204,0.0,0.0,96,0.00,,,0.00,meteohub,2013-01-14 02:36:00,
2013-01-13 21:41:00,59.5,58.5,30.11,SSW,204,0.0,0.0,96,0.00,,,0.00,meteohub,2013-01-14 02:41:00,
2013-01-13 21:46:00,59.4,58.3,30.11,SSW,204,0.0,0.0,96,0.00,,,0.00,meteohub,2013-01-14 02:46:00,
2013-01-13 21:51:00,59.4,58.3,30.11,SSW,204,0.0,0.0,96,0.00,,,0.00,meteohub,2013-01-14 02:51:00,
2013-01-13 21:56:00,58.8,57.7,30.11,SSW,204,0.0,0.0,96,0.00,,,0.00,meteohub,2013-01-14 02:56:00,
2013-01-13 22:01:00,59.2,58.1,30.11,SSW,204,0.0,0.0,96,0.00,,,0.00,meteohub,2013-01-14 03:01:00,
2013-01-13 22:06:00,58.8,57.7,30.12,SSW,204,0.0,0.0,96,0.00,,,0.00,meteohub,2013-01-14 03:06:00,
2013-01-13 22:11:00,58.6,57.6,30.12,SSW,204,0.0,0.0,96,0.00,,,0.00,meteohub,2013-01-14 03:11:00,
2013-01-13 22:16:00,58.5,57.4,30.13,SSW,204,0.0,0.0,96,0.00,,,0.00,meteohub,2013-01-14 03:16:00,
2013-01-13 22:21:00,58.3,57.2,30.13,SSW,204,0.0,0.0,96,0.00,,,0.00,meteohub,2013-01-14 03:21:00,
2013-01-13 22:27:00,58.1,57.0,30.13,SSW,204,0.0,0.0,96,0.00,,,0.00,meteohub,2013-01-14 03:27:00,
2013-01-13 22:32:00,57.9,56.8,30.14,SSW,204,0.0,0.0,96,0.00,,,0.00,meteohub,2013-01-14 03:32:00,
2013-01-13 22:37:00,58.3,57.4,30.13,SSW,204,0.0,0.0,97,0.00,,,0.00,meteohub,2013-01-14 03:37:00,
2013-01-13 22:42:00,58.8,57.9,30.13,SSW,204,0.0,0.0,97,0.00,,,0.00,meteohub,2013-01-14 03:42:00,
2013-01-13 22:47:00,59.9,59.4,30.13,SSW,204,0.0,0.0,98,0.00,,,0.00,meteohub,2013-01-14 03:47:00,
2013-01-13 22:52:00,60.8,60.3,30.14,SSW,204,0.0,0.0,98,0.00,,,0.00,meteohub,2013-01-14 03:52:00,
2013-01-13 22:57:00,61.3,60.8,30.14,SW,227,0.0,0.0,98,0.00,,,0.00,meteohub,2013-01-14 03:57:00,
2013-01-13 23:02:00,61.7,61.2,30.14,SW,222,0.0,0.0,98,0.00,,,0.00,meteohub,2013-01-14 04:02:00,
2013-01-13 23:07:00,61.9,61.0,30.14,SW,222,0.0,3.0,97,0.00,,,0.00,meteohub,2013-01-14 04:07:00,
2013-01-13 23:12:00,62.1,61.2,30.14,SW,222,0.0,3.0,97,0.00,,,0.00,meteohub,2013-01-14 04:12:00,
2013-01-13 23:17:00,62.1,61.0,30.14,SW,222,0.0,0.0,96,0.00,,,0.00,meteohub,2013-01-14 04:17:00,
2013-01-13 23:22:00,62.1,61.0,30.14,SW,222,0.0,0.0,96,0.00,,,0.00,meteohub,2013-01-14 04:22:00,
2013-01-13 23:27:00,62.1,61.0,30.14,SW,222,0.0,0.0,96,0.00,,,0.00,meteohub,2013-01-14 04:27:00,
2013-01-13 23:32:00,62.2,60.8,30.14,SW,222,0.0,0.0,95,0.00,,,0.00,meteohub,2013-01-14 04:32:00,
2013-01-13 23:37:00,62.2,60.8,30.14,SW,222,0.0,0.0,95,0.00,,,0.00,meteohub,2013-01-14 04:37:00,
2013-01-13 23:42:00,62.2,60.8,30.14,SSW,207,0.0,0.0,95,0.00,,,0.00,meteohub,2013-01-14 04:42:00,
2013-01-13 23:47:00,62.1,60.6,30.14,SSW,207,0.0,0.0,95,0.00,,,0.00,meteohub,2013-01-14 04:47:00,
2013-01-13 23:52:00,62.1,60.6,30.14,SSW,207,0.0,0.0,95,0.00,,,0.00,meteohub,2013-01-14 04:52:00,
2013-01-13 23:57:00,61.9,60.4,30.14,SSW,207,0.0,0.0,95,0.00,,,0.00,meteohub,2013-01-14 04:57:00,